| time (UTC) | temp F | wind direction | speed MPH | gust MPH | rain 1hr in | rain 24hr in | rain mn in | humidity % | barometer mb |
| 20260507132629 | 67 | 62 | 0.0 | 4.0 | 0.00 | 0.00 | 0.00 | 36 | 1012.8 |
| 20260507132129 | 67 | 62 | 2.0 | 4.0 | 0.00 | 0.00 | 0.00 | 36 | 1012.7 |
| 20260507131629 | 66 | 73 | 2.0 | 4.0 | 0.00 | 0.00 | 0.00 | 36 | 1012.6 |
| 20260507131128 | 66 | 86 | 0.0 | 3.0 | 0.00 | 0.00 | 0.00 | 36 | 1012.6 |
| 20260507130629 | 66 | 103 | 2.0 | 3.0 | 0.00 | 0.00 | 0.00 | 36 | 1012.6 |
| 20260507130130 | 66 | 32 | 0.0 | 2.0 | 0.00 | 0.00 | 0.00 | 36 | 1012.6 |
| 20260507125629 | 65 | 7 | 1.0 | 2.0 | 0.00 | 0.00 | 0.00 | 36 | 1012.5 |
| 20260507125129 | 65 | 16 | 0.0 | 3.0 | 0.00 | 0.00 | 0.00 | 36 | 1012.5 |
| 20260507124629 | 65 | 17 | 1.0 | 3.0 | 0.00 | 0.00 | 0.00 | 37 | 1012.3 |
| 20260507124128 | 64 | 17 | 2.0 | 3.0 | 0.00 | 0.00 | 0.00 | 38 | 1012.4 |
| 20260507123628 | 64 | 17 | 1.0 | 3.0 | 0.00 | 0.00 | 0.00 | 38 | 1012.4 |
| 20260507123128 | 64 | 51 | 2.0 | 3.0 | 0.00 | 0.00 | 0.00 | 40 | 1012.3 |
| 20260507122629 | 64 | 71 | 0.0 | 2.0 | 0.00 | 0.00 | 0.00 | 40 | 1012.3 |
| 20260507122131 | 64 | 18 | 0.0 | 2.0 | 0.00 | 0.00 | 0.00 | 39 | 1012.4 |
| 20260507121629 | 65 | 21 | 0.0 | 2.0 | 0.00 | 0.00 | 0.00 | 39 | 1012.4 |
| 20260507121129 | 64 | 21 | 1.0 | 2.0 | 0.00 | 0.00 | 0.00 | 39 | 1012.4 |
| 20260507120629 | 65 | 0 | 0.0 | 2.0 | 0.00 | 0.00 | 0.00 | 38 | 1012.4 |
| 20260507120129 | 64 | 0 | 1.0 | 2.0 | 0.00 | 0.00 | 0.00 | 39 | 1012.3 |
| 20260507115628 | 64 | 336 | 0.0 | 3.0 | 0.00 | 0.00 | 0.00 | 38 | 1012.3 |
| 20260507115129 | 64 | 330 | 2.0 | 4.0 | 0.00 | 0.00 | 0.00 | 38 | 1012.5 |
| 20260507114629 | 64 | 3 | 2.0 | 4.0 | 0.00 | 0.00 | 0.00 | 39 | 1012.5 |
| 20260507114128 | 64 | 340 | 2.0 | 3.0 | 0.00 | 0.00 | 0.00 | 39 | 1012.6 |
| 20260507113628 | 64 | 341 | 2.0 | 3.0 | 0.00 | 0.00 | 0.00 | 38 | 1012.5 |
| 20260507113128 | 64 | 336 | 1.0 | 4.0 | 0.00 | 0.00 | 0.00 | 38 | 1012.6 |
| 20260507112629 | 64 | 329 | 2.0 | 4.0 | 0.00 | 0.00 | 0.00 | 39 | 1012.7 |
| 20260507112129 | 64 | 330 | 2.0 | 3.0 | 0.00 | 0.00 | 0.00 | 40 | 1012.7 |
| 20260507111628 | 64 | 341 | 0.0 | 3.0 | 0.00 | 0.00 | 0.00 | 39 | 1012.7 |
| 20260507111129 | 64 | 316 | 1.0 | 3.0 | 0.00 | 0.00 | 0.00 | 39 | 1012.7 |
| 20260507110629 | 65 | 330 | 2.0 | 2.0 | 0.00 | 0.00 | 0.00 | 38 | 1012.7 |
| 20260507110129 | 65 | 355 | 0.0 | 1.0 | 0.00 | 0.00 | 0.00 | 38 | 1012.8 |
| 20260507105628 | 65 | 355 | 0.0 | 2.0 | 0.00 | 0.00 | 0.00 | 37 | 1012.8 |
| 20260507105128 | 65 | 355 | 0.0 | 3.0 | 0.00 | 0.00 | 0.00 | 37 | 1012.9 |
| 20260507104629 | 66 | 337 | 1.0 | 3.0 | 0.00 | 0.00 | 0.00 | 37 | 1012.9 |
| 20260507104128 | 66 | 355 | 2.0 | 3.0 | 0.00 | 0.00 | 0.00 | 37 | 1012.8 |
| 20260507103629 | 66 | 355 | 0.0 | 2.0 | 0.00 | 0.00 | 0.00 | 37 | 1012.9 |
| 20260507103129 | 66 | 0 | 1.0 | 3.0 | 0.00 | 0.00 | 0.00 | 37 | 1013.0 |
| 20260507102628 | 66 | 354 | 1.0 | 3.0 | 0.00 | 0.00 | 0.00 | 37 | 1013.0 |
| 20260507102129 | 66 | 18 | 1.0 | 3.0 | 0.00 | 0.00 | 0.00 | 37 | 1013.1 |
| 20260507101629 | 66 | 358 | 1.0 | 3.0 | 0.00 | 0.00 | 0.00 | 37 | 1013.1 |
| 20260507101128 | 66 | 0 | 2.0 | 4.0 | 0.00 | 0.00 | 0.00 | 38 | 1013.1 |
| 20260507100629 | 66 | 344 | 2.0 | 4.0 | 0.00 | 0.00 | 0.00 | 37 | 1013.1 |
| 20260507100128 | 66 | 344 | 2.0 | 3.0 | 0.00 | 0.00 | 0.00 | 37 | 1013.1 |
| 20260507095629 | 66 | 345 | 1.0 | 3.0 | 0.00 | 0.00 | 0.00 | 37 | 1013.1 |
| 20260507095130 | 67 | 0 | 0.0 | 1.0 | 0.00 | 0.00 | 0.00 | 37 | 1013.1 |
| 20260507094629 | 67 | 0 | 0.0 | 2.0 | 0.00 | 0.00 | 0.00 | 36 | 1013.0 |
| 20260507094129 | 67 | 37 | 0.0 | 4.0 | 0.00 | 0.00 | 0.00 | 36 | 1013.0 |
| 20260507093629 | 67 | 37 | 2.0 | 4.0 | 0.00 | 0.00 | 0.00 | 36 | 1013.1 |
| 20260507093129 | 67 | 30 | 1.0 | 2.0 | 0.00 | 0.00 | 0.00 | 35 | 1013.0 |
| 20260507092629 | 67 | 58 | 0.0 | 2.0 | 0.00 | 0.00 | 0.00 | 36 | 1013.1 |
| 20260507092128 | 67 | 58 | 1.0 | 3.0 | 0.00 | 0.00 | 0.00 | 38 | 1013.1 |
| 20260507091630 | 68 | 58 | 2.0 | 3.0 | 0.00 | 0.00 | 0.00 | 37 | 1013.0 |
| 20260507091128 | 67 | 32 | 0.0 | 3.0 | 0.00 | 0.00 | 0.00 | 37 | 1013.0 |
| 20260507090629 | 67 | 32 | 1.0 | 2.0 | 0.00 | 0.00 | 0.00 | 38 | 1013.1 |
| 20260507090129 | 67 | 32 | 1.0 | 2.0 | 0.00 | 0.00 | 0.00 | 39 | 1013.1 |
| 20260507085629 | 67 | 32 | 0.0 | 1.0 | 0.00 | 0.00 | 0.00 | 38 | 1013.1 |
| 20260507085129 | 67 | 32 | 0.0 | 0.0 | 0.00 | 0.00 | 0.00 | 38 | 1013.1 |
| 20260507084629 | 67 | 32 | 0.0 | 0.0 | 0.00 | 0.00 | 0.00 | 37 | 1013.2 |
| 20260507084129 | 67 | 32 | 0.0 | 0.0 | 0.00 | 0.00 | 0.00 | 37 | 1013.1 |
| 20260507083628 | 67 | 32 | 0.0 | 0.0 | 0.00 | 0.00 | 0.00 | 37 | 1013.2 |
| 20260507083130 | 68 | 32 | 0.0 | 1.0 | 0.00 | 0.00 | 0.00 | 35 | 1013.2 |
| 20260507082628 | 68 | 75 | 0.0 | 1.0 | 0.00 | 0.00 | 0.00 | 34 | 1013.3 |
| 20260507082129 | 68 | 75 | 0.0 | 2.0 | 0.00 | 0.00 | 0.00 | 34 | 1013.3 |
| 20260507081628 | 69 | 75 | 2.0 | 2.0 | 0.00 | 0.00 | 0.00 | 34 | 1013.4 |
| 20260507081129 | 69 | 75 | 0.0 | 1.0 | 0.00 | 0.00 | 0.00 | 34 | 1013.4 |
| 20260507080629 | 68 | 0 | 0.0 | 1.0 | 0.00 | 0.00 | 0.00 | 36 | 1013.4 |
| 20260507080128 | 69 | 344 | 0.0 | 1.0 | 0.00 | 0.00 | 0.00 | 35 | 1013.4 |
| 20260507075629 | 69 | 344 | 0.0 | 1.0 | 0.00 | 0.00 | 0.00 | 33 | 1013.4 |
| 20260507075129 | 69 | 338 | 0.0 | 1.0 | 0.00 | 0.00 | 0.00 | 32 | 1013.4 |
| 20260507074629 | 69 | 338 | 1.0 | 1.0 | 0.00 | 0.00 | 0.00 | 32 | 1013.4 |
| 20260507074129 | 70 | 338 | 0.0 | 2.0 | 0.00 | 0.00 | 0.00 | 31 | 1013.4 |
| 20260507073629 | 70 | 338 | 1.0 | 2.0 | 0.00 | 0.00 | 0.00 | 31 | 1013.6 |
| 20260507073129 | 71 | 333 | 0.0 | 2.0 | 0.00 | 0.00 | 0.00 | 29 | 1013.6 |
| 20260507072628 | 72 | 290 | 0.0 | 2.0 | 0.00 | 0.00 | 0.00 | 28 | 1013.4 |
| 20260507072129 | 72 | 258 | 0.0 | 3.0 | 0.00 | 0.00 | 0.00 | 28 | 1013.4 |
| 20260507071628 | 72 | 224 | 1.0 | 3.0 | 0.00 | 0.00 | 0.00 | 28 | 1013.3 |
| 20260507071129 | 72 | 212 | 2.0 | 3.0 | 0.00 | 0.00 | 0.00 | 28 | 1013.3 |
| 20260507070629 | 72 | 212 | 0.0 | 2.0 | 0.00 | 0.00 | 0.00 | 29 | 1013.3 |
| 20260507070128 | 72 | 206 | 1.0 | 3.0 | 0.00 | 0.00 | 0.00 | 30 | 1013.3 |
| 20260507065629 | 72 | 176 | 0.0 | 3.0 | 0.00 | 0.00 | 0.00 | 28 | 1013.4 |
| 20260507065129 | 72 | 195 | 0.0 | 2.0 | 0.00 | 0.00 | 0.00 | 29 | 1013.3 |
| 20260507064628 | 73 | 195 | 1.0 | 2.0 | 0.00 | 0.00 | 0.00 | 28 | 1013.3 |
| 20260507064128 | 73 | 217 | 0.0 | 2.0 | 0.00 | 0.00 | 0.00 | 28 | 1013.3 |
| 20260507063629 | 73 | 227 | 1.0 | 2.0 | 0.00 | 0.00 | 0.00 | 28 | 1013.3 |
| 20260507063128 | 73 | 192 | 0.0 | 2.0 | 0.00 | 0.00 | 0.00 | 28 | 1013.3 |
| 20260507062629 | 73 | 175 | 0.0 | 3.0 | 0.00 | 0.00 | 0.00 | 29 | 1013.3 |
| 20260507062129 | 74 | 180 | 1.0 | 3.0 | 0.00 | 0.00 | 0.00 | 27 | 1013.3 |
| 20260507061629 | 74 | 199 | 2.0 | 3.0 | 0.00 | 0.00 | 0.00 | 27 | 1013.3 |
| 20260507061129 | 74 | 188 | 1.0 | 2.0 | 0.00 | 0.00 | 0.00 | 27 | 1013.3 |
| 20260507060629 | 74 | 203 | 0.0 | 2.0 | 0.00 | 0.00 | 0.00 | 27 | 1013.3 |
| 20260507060129 | 74 | 212 | 1.0 | 3.0 | 0.00 | 0.00 | 0.00 | 27 | 1013.3 |
| 20260507055630 | 74 | 231 | 1.0 | 3.0 | 0.00 | 0.00 | 0.00 | 28 | 1013.3 |
| 20260507055128 | 74 | 226 | 2.0 | 3.0 | 0.00 | 0.00 | 0.00 | 28 | 1013.3 |
| 20260507054629 | 75 | 219 | 2.0 | 3.0 | 0.00 | 0.00 | 0.00 | 28 | 1013.3 |
| 20260507054129 | 75 | 223 | 2.0 | 3.0 | 0.00 | 0.00 | 0.00 | 27 | 1013.4 |
| 20260507053629 | 74 | 202 | 2.0 | 3.0 | 0.00 | 0.00 | 0.00 | 28 | 1013.4 |
| 20260507053129 | 74 | 223 | 1.0 | 2.0 | 0.00 | 0.00 | 0.00 | 28 | 1013.4 |
| 20260507052628 | 74 | 221 | 0.0 | 2.0 | 0.00 | 0.00 | 0.00 | 27 | 1013.6 |
| 20260507052128 | 75 | 234 | 0.0 | 3.0 | 0.00 | 0.00 | 0.00 | 28 | 1013.4 |
| 20260507051628 | 75 | 234 | 1.0 | 3.0 | 0.00 | 0.00 | 0.00 | 27 | 1013.3 |
| 20260507051130 | 76 | 221 | 2.0 | 3.0 | 0.00 | 0.00 | 0.00 | 26 | 1013.3 |
| 20260507050629 | 76 | 212 | 2.0 | 3.0 | 0.00 | 0.00 | 0.00 | 26 | 1013.3 |
| 20260507050129 | 76 | 183 | 2.0 | 3.0 | 0.00 | 0.00 | 0.00 | 26 | 1013.3 |
| 20260507045628 | 76 | 189 | 2.0 | 3.0 | 0.00 | 0.00 | 0.00 | 26 | 1013.3 |
| 20260507045128 | 76 | 195 | 1.0 | 3.0 | 0.00 | 0.00 | 0.00 | 27 | 1013.2 |
| 20260507044629 | 75 | 195 | 0.0 | 2.0 | 0.00 | 0.00 | 0.00 | 28 | 1013.2 |
| 20260507044129 | 75 | 195 | 1.0 | 2.0 | 0.00 | 0.00 | 0.00 | 27 | 1013.1 |
| 20260507043629 | 76 | 190 | 0.0 | 2.0 | 0.00 | 0.00 | 0.00 | 30 | 1013.0 |
| 20260507043129 | 76 | 190 | 0.0 | 3.0 | 0.00 | 0.00 | 0.00 | 29 | 1013.1 |
| 20260507042629 | 77 | 190 | 2.0 | 3.0 | 0.00 | 0.00 | 0.00 | 26 | 1013.0 |
| 20260507042129 | 77 | 180 | 0.0 | 4.0 | 0.00 | 0.00 | 0.00 | 25 | 1013.0 |
| 20260507041628 | 78 | 190 | 2.0 | 4.0 | 0.00 | 0.00 | 0.00 | 25 | 1012.9 |
| 20260507041128 | 78 | 199 | 1.0 | 3.0 | 0.00 | 0.00 | 0.00 | 25 | 1012.9 |
| 20260507040629 | 78 | 199 | 1.0 | 4.0 | 0.00 | 0.00 | 0.00 | 24 | 1012.8 |
| 20260507040129 | 77 | 172 | 2.0 | 4.0 | 0.00 | 0.00 | 0.00 | 25 | 1012.8 |
| 20260507035629 | 77 | 165 | 1.0 | 2.0 | 0.00 | 0.00 | 0.00 | 25 | 1012.7 |
| 20260507035128 | 77 | 165 | 1.0 | 4.0 | 0.00 | 0.00 | 0.00 | 27 | 1012.6 |
| 20260507034629 | 78 | 172 | 2.0 | 4.0 | 0.00 | 0.00 | 0.00 | 24 | 1012.5 |
| 20260507034129 | 78 | 190 | 1.0 | 3.0 | 0.00 | 0.00 | 0.00 | 24 | 1012.5 |
| 20260507033629 | 78 | 186 | 1.0 | 2.0 | 0.00 | 0.00 | 0.00 | 24 | 1012.4 |
| 20260507033129 | 78 | 203 | 0.0 | 2.0 | 0.00 | 0.00 | 0.00 | 24 | 1012.3 |
| 20260507032630 | 78 | 203 | 1.0 | 2.0 | 0.00 | 0.00 | 0.00 | 25 | 1012.2 |
| 20260507032129 | 79 | 203 | 0.0 | 2.0 | 0.00 | 0.00 | 0.00 | 24 | 1012.1 |
| 20260507031628 | 79 | 203 | 1.0 | 4.0 | 0.00 | 0.00 | 0.00 | 23 | 1012.1 |
| 20260507031129 | 80 | 227 | 1.0 | 4.0 | 0.00 | 0.00 | 0.00 | 23 | 1012.0 |
| 20260507030629 | 80 | 209 | 2.0 | 5.0 | 0.00 | 0.00 | 0.00 | 23 | 1012.0 |
| 20260507030129 | 80 | 186 | 2.0 | 5.0 | 0.00 | 0.00 | 0.00 | 23 | 1011.9 |
| 20260507025629 | 80 | 210 | 3.0 | 5.0 | 0.00 | 0.00 | 0.00 | 22 | 1011.8 |
| 20260507025128 | 80 | 227 | 3.0 | 6.0 | 0.00 | 0.00 | 0.00 | 22 | 1011.7 |
| 20260507024630 | 80 | 200 | 2.0 | 7.0 | 0.00 | 0.00 | 0.00 | 22 | 1011.7 |
| 20260507024128 | 81 | 241 | 2.0 | 9.0 | 0.00 | 0.00 | 0.00 | 22 | 1011.7 |
| 20260507023629 | 81 | 188 | 4.0 | 9.0 | 0.00 | 0.00 | 0.00 | 22 | 1011.7 |
| 20260507023129 | 81 | 196 | 2.0 | 7.0 | 0.00 | 0.00 | 0.00 | 22 | 1011.7 |
| 20260507022628 | 81 | 227 | 2.0 | 7.0 | 0.00 | 0.00 | 0.00 | 22 | 1011.6 |
| 20260507022129 | 81 | 192 | 4.0 | 7.0 | 0.00 | 0.00 | 0.00 | 22 | 1011.7 |
| 20260507021629 | 81 | 197 | 3.0 | 9.0 | 0.00 | 0.00 | 0.00 | 22 | 1011.6 |
| 20260507021128 | 81 | 231 | 4.0 | 9.0 | 0.00 | 0.00 | 0.00 | 22 | 1011.6 |
| 20260507020629 | 82 | 179 | 5.0 | 7.0 | 0.00 | 0.00 | 0.00 | 22 | 1011.5 |
| 20260507020130 | 82 | 183 | 5.0 | 10.0 | 0.00 | 0.00 | 0.00 | 22 | 1011.5 |
| 20260507015628 | 82 | 176 | 5.0 | 10.0 | 0.00 | 0.00 | 0.00 | 21 | 1011.6 |
| 20260507015128 | 82 | 159 | 4.0 | 7.0 | 0.00 | 0.00 | 0.00 | 21 | 1011.4 |
| 20260507014630 | 82 | 176 | 4.0 | 7.0 | 0.00 | 0.00 | 0.00 | 21 | 1011.4 |
| 20260507014129 | 83 | 182 | 4.0 | 7.0 | 0.00 | 0.00 | 0.00 | 21 | 1011.4 |
| 20260507013628 | 83 | 157 | 4.0 | 7.0 | 0.00 | 0.00 | 0.00 | 21 | 1011.4 |
| 20260507013129 | 83 | 131 | 4.0 | 9.0 | 0.00 | 0.00 | 0.00 | 21 | 1011.4 |
| 20260507012629 | 83 | 125 | 4.0 | 10.0 | 0.00 | 0.00 | 0.00 | 21 | 1011.4 |
| 20260507012129 | 83 | 204 | 7.0 | 10.0 | 0.00 | 0.00 | 0.00 | 21 | 1011.4 |
| 20260507011629 | 83 | 171 | 6.0 | 10.0 | 0.00 | 0.00 | 0.00 | 21 | 1011.3 |
| 20260507011129 | 84 | 172 | 5.0 | 9.0 | 0.00 | 0.00 | 0.00 | 21 | 1011.3 |
| 20260507010629 | 84 | 233 | 4.0 | 9.0 | 0.00 | 0.00 | 0.00 | 21 | 1011.3 |
| 20260507010129 | 84 | 254 | 4.0 | 9.0 | 0.00 | 0.00 | 0.00 | 21 | 1011.4 |
| 20260507005630 | 84 | 259 | 4.0 | 9.0 | 0.00 | 0.00 | 0.00 | 21 | 1011.3 |
| 20260507005130 | 84 | 266 | 4.0 | 7.0 | 0.00 | 0.00 | 0.00 | 21 | 1011.4 |
| 20260507004630 | 84 | 245 | 4.0 | 6.0 | 0.00 | 0.00 | 0.00 | 21 | 1011.4 |
| 20260507004130 | 84 | 286 | 4.0 | 7.0 | 0.00 | 0.00 | 0.00 | 20 | 1011.3 |
| 20260507003628 | 84 | 226 | 5.0 | 9.0 | 0.00 | 0.00 | 0.00 | 20 | 1011.3 |
| 20260507003129 | 84 | 210 | 6.0 | 11.0 | 0.00 | 0.00 | 0.00 | 20 | 1011.3 |
| 20260507002629 | 84 | 250 | 6.0 | 11.0 | 0.00 | 0.00 | 0.00 | 21 | 1011.3 |
| 20260507002129 | 85 | 207 | 3.0 | 9.0 | 0.00 | 0.00 | 0.00 | 21 | 1011.3 |
| 20260507001629 | 84 | 168 | 5.0 | 7.0 | 0.00 | 0.00 | 0.00 | 21 | 1011.3 |
| 20260507001128 | 84 | 216 | 6.0 | 10.0 | 0.00 | 0.00 | 0.00 | 20 | 1011.3 |
| 20260507000628 | 84 | 124 | 4.0 | 10.0 | 0.00 | 0.00 | 0.00 | 20 | 1011.3 |
| 20260507000128 | 85 | 234 | 5.0 | 9.0 | 0.00 | 0.00 | 0.00 | 21 | 1011.3 |
| 20260506235629 | 84 | 93 | 1.0 | 10.0 | 0.00 | 0.00 | 0.00 | 21 | 1011.3 |
| 20260506235129 | 84 | 116 | 2.0 | 11.0 | 0.00 | 0.00 | 0.00 | 20 | 1011.3 |
| 20260506234629 | 84 | 285 | 8.0 | 11.0 | 0.00 | 0.00 | 0.00 | 21 | 1011.3 |
| 20260506234128 | 84 | 214 | 2.0 | 7.0 | 0.00 | 0.00 | 0.00 | 21 | 1011.3 |
| 20260506233629 | 84 | 214 | 2.0 | 7.0 | 0.00 | 0.00 | 0.00 | 22 | 1011.4 |
| 20260506233129 | 84 | 134 | 5.0 | 7.0 | 0.00 | 0.00 | 0.00 | 21 | 1011.5 |
| 20260506232629 | 84 | 223 | 3.0 | 11.0 | 0.00 | 0.00 | 0.00 | 21 | 1011.6 |
| 20260506232129 | 85 | 200 | 6.0 | 11.0 | 0.00 | 0.00 | 0.00 | 21 | 1011.7 |
| 20260506231629 | 85 | 173 | 1.0 | 4.0 | 0.00 | 0.00 | 0.00 | 21 | 1011.7 |
| 20260506231129 | 85 | 347 | 3.0 | 9.0 | 0.00 | 0.00 | 0.00 | 23 | 1011.7 |
| 20260506230628 | 85 | 292 | 6.0 | 9.0 | 0.00 | 0.00 | 0.00 | 20 | 1011.8 |
| 20260506230129 | 85 | 255 | 4.0 | 17.0 | 0.00 | 0.00 | 0.00 | 21 | 1011.8 |
| 20260506225628 | 86 | 286 | 11.0 | 17.0 | 0.00 | 0.00 | 0.00 | 20 | 1011.9 |
| 20260506225128 | 84 | 220 | 1.0 | 6.0 | 0.00 | 0.00 | 0.00 | 20 | 1011.8 |
| 20260506224628 | 84 | 247 | 1.0 | 7.0 | 0.00 | 0.00 | 0.00 | 21 | 1011.9 |
| 20260506224128 | 84 | 227 | 4.0 | 10.0 | 0.00 | 0.00 | 0.00 | 22 | 1011.9 |
| 20260506223629 | 84 | 288 | 3.0 | 10.0 | 0.00 | 0.00 | 0.00 | 21 | 1012.0 |
| 20260506223129 | 85 | 223 | 5.0 | 10.0 | 0.00 | 0.00 | 0.00 | 20 | 1012.1 |
| 20260506222628 | 84 | 235 | 4.0 | 11.0 | 0.00 | 0.00 | 0.00 | 22 | 1012.0 |
| 20260506222128 | 84 | 237 | 5.0 | 11.0 | 0.00 | 0.00 | 0.00 | 21 | 1012.2 |
| 20260506221629 | 84 | 255 | 5.0 | 10.0 | 0.00 | 0.00 | 0.00 | 22 | 1012.2 |
| 20260506221129 | 83 | 250 | 2.0 | 6.0 | 0.00 | 0.00 | 0.00 | 22 | 1012.3 |
| 20260506220629 | 84 | 285 | 2.0 | 9.0 | 0.00 | 0.00 | 0.00 | 22 | 1012.2 |
| 20260506220129 | 84 | 127 | 4.0 | 9.0 | 0.00 | 0.00 | 0.00 | 22 | 1012.4 |
| 20260506215629 | 84 | 199 | 3.0 | 13.0 | 0.00 | 0.00 | 0.00 | 22 | 1012.5 |
| 20260506215128 | 83 | 259 | 6.0 | 13.0 | 0.00 | 0.00 | 0.00 | 22 | 1012.6 |
| 20260506214629 | 82 | 224 | 2.0 | 10.0 | 0.00 | 0.00 | 0.00 | 21 | 1012.7 |
| 20260506214129 | 83 | 237 | 5.0 | 9.0 | 0.00 | 0.00 | 0.00 | 22 | 1012.8 |
| 20260506213629 | 83 | 264 | 3.0 | 7.0 | 0.00 | 0.00 | 0.00 | 21 | 1012.9 |
| 20260506213129 | 83 | 244 | 4.0 | 7.0 | 0.00 | 0.00 | 0.00 | 22 | 1012.9 |
| 20260506212629 | 83 | 155 | 4.0 | 11.0 | 0.00 | 0.00 | 0.00 | 22 | 1013.0 |
| 20260506212128 | 82 | 168 | 4.0 | 12.0 | 0.00 | 0.00 | 0.00 | 22 | 1013.1 |
| 20260506211630 | 83 | 196 | 8.0 | 12.0 | 0.00 | 0.00 | 0.00 | 22 | 1013.2 |
| 20260506211130 | 83 | 169 | 1.0 | 9.0 | 0.00 | 0.00 | 0.00 | 21 | 1013.2 |
| 20260506210629 | 83 | 296 | 2.0 | 6.0 | 0.00 | 0.00 | 0.00 | 22 | 1013.2 |
| 20260506210130 | 81 | 230 | 2.0 | 4.0 | 0.00 | 0.00 | 0.00 | 24 | 1013.4 |
| 20260506205630 | 81 | 103 | 0.0 | 6.0 | 0.00 | 0.00 | 0.00 | 22 | 1013.6 |
| 20260506205130 | 82 | 274 | 2.0 | 9.0 | 0.00 | 0.00 | 0.00 | 22 | 1013.8 |
| 20260506204630 | 82 | 190 | 4.0 | 9.0 | 0.00 | 0.00 | 0.00 | 22 | 1013.8 |
| 20260506204130 | 82 | 0 | 2.0 | 11.0 | 0.00 | 0.00 | 0.00 | 22 | 1013.8 |
| 20260506203629 | 82 | 305 | 4.0 | 11.0 | 0.00 | 0.00 | 0.00 | 21 | 1013.9 |
| 20260506203129 | 82 | 282 | 2.0 | 9.0 | 0.00 | 0.00 | 0.00 | 22 | 1013.9 |
| 20260506202629 | 81 | 245 | 3.0 | 9.0 | 0.00 | 0.00 | 0.00 | 21 | 1014.0 |
| 20260506202129 | 80 | 268 | 2.0 | 12.0 | 0.00 | 0.00 | 0.00 | 23 | 1014.0 |
| 20260506201629 | 81 | 264 | 3.0 | 12.0 | 0.00 | 0.00 | 0.00 | 23 | 1014.1 |
| 20260506201129 | 81 | 264 | 2.0 | 11.0 | 0.00 | 0.00 | 0.00 | 23 | 1014.1 |
| 20260506200629 | 81 | 296 | 1.0 | 12.0 | 0.00 | 0.00 | 0.00 | 24 | 1014.1 |
| 20260506200129 | 81 | 212 | 5.0 | 12.0 | 0.00 | 0.00 | 0.00 | 23 | 1014.2 |
| 20260506195633 | 82 | 266 | 4.0 | 11.0 | 0.00 | 0.00 | 0.00 | 23 | 1014.2 |
| 20260506195132 | 81 | 244 | 5.0 | 9.0 | 0.00 | 0.00 | 0.00 | 23 | 1014.3 |
| 20260506194630 | 80 | 224 | 3.0 | 9.0 | 0.00 | 0.00 | 0.00 | 24 | 1014.3 |
| 20260506194128 | 81 | 217 | 4.0 | 9.0 | 0.00 | 0.00 | 0.00 | 23 | 1014.4 |
| 20260506193628 | 80 | 244 | 2.0 | 7.0 | 0.00 | 0.00 | 0.00 | 23 | 1014.5 |
| 20260506193128 | 80 | 214 | 4.0 | 10.0 | 0.00 | 0.00 | 0.00 | 26 | 1014.6 |
| 20260506192628 | 80 | 221 | 5.0 | 10.0 | 0.00 | 0.00 | 0.00 | 25 | 1014.4 |
| 20260506192128 | 80 | 207 | 4.0 | 10.0 | 0.00 | 0.00 | 0.00 | 25 | 1014.5 |
| 20260506191629 | 80 | 157 | 4.0 | 9.0 | 0.00 | 0.00 | 0.00 | 25 | 1014.5 |
| 20260506191128 | 78 | 238 | 2.0 | 11.0 | 0.00 | 0.00 | 0.00 | 26 | 1014.6 |
| 20260506190628 | 80 | 252 | 6.0 | 11.0 | 0.00 | 0.00 | 0.00 | 25 | 1014.7 |
| 20260506190128 | 79 | 314 | 4.0 | 11.0 | 0.00 | 0.00 | 0.00 | 24 | 1014.7 |
| 20260506185627 | 80 | 275 | 7.0 | 11.0 | 0.00 | 0.00 | 0.00 | 23 | 1014.7 |
| 20260506185127 | 79 | 255 | 4.0 | 9.0 | 0.00 | 0.00 | 0.00 | 26 | 1014.8 |
| 20260506184627 | 78 | 320 | 1.0 | 9.0 | 0.00 | 0.00 | 0.00 | 26 | 1014.8 |
| 20260506184127 | 78 | 141 | 4.0 | 6.0 | 0.00 | 0.00 | 0.00 | 26 | 1014.9 |
| 20260506183627 | 77 | 142 | 2.0 | 7.0 | 0.00 | 0.00 | 0.00 | 29 | 1014.9 |
| 20260506183126 | 78 | 158 | 4.0 | 7.0 | 0.00 | 0.00 | 0.00 | 26 | 1015.1 |
| 20260506182625 | 78 | 216 | 5.0 | 9.0 | 0.00 | 0.00 | 0.00 | 27 | 1015.2 |
| 20260506182126 | 78 | 224 | 4.0 | 11.0 | 0.00 | 0.00 | 0.00 | 27 | 1015.2 |
| 20260506181625 | 77 | 193 | 6.0 | 11.0 | 0.00 | 0.00 | 0.00 | 27 | 1015.2 |
| 20260506181126 | 77 | 259 | 5.0 | 10.0 | 0.00 | 0.00 | 0.00 | 27 | 1015.3 |
| 20260506180623 | 77 | 261 | 2.0 | 7.0 | 0.00 | 0.00 | 0.00 | 30 | 1015.3 |
| 20260506180123 | 77 | 262 | 3.0 | 7.0 | 0.00 | 0.00 | 0.00 | 29 | 1015.3 |
| 20260506175624 | 76 | 224 | 5.0 | 10.0 | 0.00 | 0.00 | 0.00 | 29 | 1015.4 |
| 20260506175123 | 76 | 196 | 3.0 | 10.0 | 0.00 | 0.00 | 0.00 | 29 | 1015.5 |
| 20260506174623 | 76 | 173 | 2.0 | 5.0 | 0.00 | 0.00 | 0.00 | 30 | 1015.4 |
| 20260506174123 | 76 | 161 | 2.0 | 5.0 | 0.00 | 0.00 | 0.00 | 29 | 1015.4 |
| 20260506173623 | 75 | 200 | 2.0 | 7.0 | 0.00 | 0.00 | 0.00 | 31 | 1015.5 |
| 20260506173122 | 75 | 144 | 5.0 | 7.0 | 0.00 | 0.00 | 0.00 | 30 | 1015.5 |
| 20260506172622 | 75 | 161 | 2.0 | 7.0 | 0.00 | 0.00 | 0.00 | 30 | 1015.4 |
| 20260506172123 | 75 | 295 | 2.0 | 9.0 | 0.00 | 0.00 | 0.00 | 31 | 1015.5 |
| 20260506171623 | 74 | 204 | 3.0 | 9.0 | 0.00 | 0.00 | 0.00 | 32 | 1015.5 |
| 20260506171123 | 75 | 140 | 3.0 | 7.0 | 0.00 | 0.00 | 0.00 | 31 | 1015.6 |
| 20260506170622 | 74 | 243 | 5.0 | 7.0 | 0.00 | 0.00 | 0.00 | 31 | 1015.5 |
| 20260506170122 | 74 | 289 | 4.0 | 9.0 | 0.00 | 0.00 | 0.00 | 31 | 1015.4 |
| 20260506165624 | 74 | 123 | 2.0 | 9.0 | 0.00 | 0.00 | 0.00 | 32 | 1015.4 |
| 20260506165124 | 74 | 244 | 4.0 | 9.0 | 0.00 | 0.00 | 0.00 | 32 | 1015.4 |
| 20260506164623 | 73 | 151 | 2.0 | 9.0 | 0.00 | 0.00 | 0.00 | 32 | 1015.4 |
| 20260506164122 | 72 | 155 | 2.0 | 7.0 | 0.00 | 0.00 | 0.00 | 33 | 1015.4 |
| 20260506163622 | 72 | 152 | 4.0 | 6.0 | 0.00 | 0.00 | 0.00 | 34 | 1015.3 |
| 20260506163122 | 71 | 261 | 1.0 | 6.0 | 0.00 | 0.00 | 0.00 | 35 | 1015.4 |
| 20260506162623 | 72 | 202 | 1.0 | 7.0 | 0.00 | 0.00 | 0.00 | 34 | 1015.4 |
| 20260506162123 | 72 | 212 | 4.0 | 7.0 | 0.00 | 0.00 | 0.00 | 34 | 1015.3 |
| 20260506161622 | 71 | 185 | 2.0 | 7.0 | 0.00 | 0.00 | 0.00 | 36 | 1015.3 |
| 20260506161123 | 71 | 188 | 3.0 | 7.0 | 0.00 | 0.00 | 0.00 | 35 | 1015.2 |
| 20260506160622 | 71 | 114 | 1.0 | 3.0 | 0.00 | 0.00 | 0.00 | 35 | 1015.3 |
| 20260506160123 | 70 | 111 | 0.0 | 4.0 | 0.00 | 0.00 | 0.00 | 35 | 1015.2 |
| 20260506155623 | 70 | 111 | 3.0 | 4.0 | 0.00 | 0.00 | 0.00 | 35 | 1015.2 |
| 20260506155123 | 69 | 111 | 0.0 | 4.0 | 0.00 | 0.00 | 0.00 | 36 | 1015.2 |
| 20260506154623 | 69 | 320 | 2.0 | 4.0 | 0.00 | 0.00 | 0.00 | 37 | 1015.2 |
| 20260506154121 | 69 | 334 | 0.0 | 3.0 | 0.00 | 0.00 | 0.00 | 38 | 1015.3 |
| 20260506153620 | 69 | 334 | 2.0 | 4.0 | 0.00 | 0.00 | 0.00 | 37 | 1015.3 |
| 20260506153120 | 68 | 334 | 2.0 | 4.0 | 0.00 | 0.00 | 0.00 | 37 | 1015.3 |
| 20260506152621 | 68 | 0 | 2.0 | 4.0 | 0.00 | 0.00 | 0.00 | 38 | 1015.4 |
| 20260506152119 | 68 | 175 | 0.0 | 2.0 | 0.00 | 0.00 | 0.00 | 39 | 1015.3 |
| 20260506151620 | 67 | 355 | 0.0 | 4.0 | 0.00 | 0.00 | 0.00 | 39 | 1015.3 |
| 20260506151120 | 67 | 227 | 2.0 | 4.0 | 0.00 | 0.00 | 0.00 | 39 | 1015.3 |
| 20260506150619 | 67 | 289 | 3.0 | 4.0 | 0.00 | 0.00 | 0.00 | 39 | 1015.3 |
| 20260506150119 | 67 | 275 | 1.0 | 4.0 | 0.00 | 0.00 | 0.00 | 40 | 1015.3 |
| 20260506145619 | 66 | 257 | 2.0 | 4.0 | 0.00 | 0.00 | 0.00 | 40 | 1015.4 |
| 20260506145120 | 66 | 200 | 2.0 | 6.0 | 0.00 | 0.00 | 0.00 | 41 | 1015.3 |
| 20260506144619 | 66 | 258 | 4.0 | 6.0 | 0.00 | 0.00 | 0.00 | 40 | 1015.4 |
| 20260506144119 | 66 | 258 | 3.0 | 6.0 | 0.00 | 0.00 | 0.00 | 40 | 1015.4 |
| 20260506143620 | 65 | 310 | 2.0 | 6.0 | 0.00 | 0.00 | 0.00 | 41 | 1015.4 |
| 20260506143118 | 65 | 286 | 4.0 | 6.0 | 0.00 | 0.00 | 0.00 | 40 | 1015.2 |
| 20260506142618 | 65 | 268 | 4.0 | 5.0 | 0.00 | 0.00 | 0.00 | 41 | 1015.2 |
| 20260506142118 | 65 | 276 | 3.0 | 6.0 | 0.00 | 0.00 | 0.00 | 41 | 1015.2 |
| 20260506141618 | 65 | 281 | 4.0 | 6.0 | 0.00 | 0.00 | 0.00 | 41 | 1015.1 |
| 20260506141118 | 65 | 1 | 2.0 | 5.0 | 0.00 | 0.00 | 0.00 | 42 | 1014.9 |
| 20260506140618 | 64 | 4 | 4.0 | 5.0 | 0.00 | 0.00 | 0.00 | 42 | 1014.9 |
| 20260506140118 | 64 | 7 | 1.0 | 3.0 | 0.00 | 0.00 | 0.00 | 44 | 1014.8 |
| 20260506135617 | 64 | 316 | 0.0 | 3.0 | 0.00 | 0.00 | 0.00 | 45 | 1014.7 |
| 20260506135117 | 63 | 0 | 1.0 | 3.0 | 0.00 | 0.00 | 0.00 | 45 | 1014.6 |
| 20260506134617 | 63 | 299 | 1.0 | 4.0 | 0.00 | 0.00 | 0.00 | 45 | 1014.6 |
| 20260506134116 | 62 | 214 | 2.0 | 4.0 | 0.00 | 0.00 | 0.00 | 46 | 1014.5 |
| 20260506133618 | 62 | 244 | 2.0 | 3.0 | 0.00 | 0.00 | 0.00 | 47 | 1014.4 |
| 20260506133117 | 61 | 312 | 0.0 | 1.0 | 0.00 | 0.00 | 0.00 | 48 | 1014.4 |